Weather History for Fort Campbell, KY

Change the Weather History Date:

Thursday, February 2, 2012

  Actual Average Record
Temperature  
Mean Temperature 51 °F -  
Max Temperature 61 °F 46 °F 68 °F (2003)
Min Temperature 38 °F 29 °F 17 °F (2000)
Degree Days  
Heating Degree Days 14    
Growing Degree Days 1 (Base 50)    
Moisture  
Dew Point 39 °F    
Average Humidity 72    
Maximum Humidity 99    
Minimum Humidity 30    
Precipitation  
Precipitation 0.00 in - - ()
Sea Level Pressure  
Sea Level Pressure 30.28 in    
Wind  
Wind Speed 2 mph (NNE)    
Max Wind Speed 9 mph    
Max Gust Speed -    
Visibility 10 miles    
Events      
Averages and records for this station are not official NWS values.
T = Trace of Precipitation, MM = Missing Value Source: NWS Daily Summary

Daily Weather History Graph

Daily Weather History Graph

Search for Another Location

Airport:

Trip Planner

Search our weather history database for the weather conditions in past years. The results will help you decide how hot, cold, wet, or windy it might be!

Date:

Astronomy

Feb. 02, 2012 Rise Set
Actual Time 6:51 AM CST 5:16 PM CST
Civil Twilight 6:24 AM CST 5:43 PM CST
Nautical Twilight 5:53 AM CST 6:14 PM CST
Astronomical Twilight 5:23 AM CST 6:44 PM CST
Moon 12:30 PM CST (2/2) 2:30 AM CST (2/2)
Length of Visible Light 11h 19m
Length of Day
10h 24m
Waxing Gibbous, 74% of the Moon is Illuminated
Feb 2
Waxing Gibbous
Feb 7
Full
Feb 14
Last Quarter
Feb 21
New
Feb 29
First Quarter

Hourly Weather History & Observations

Time (CST) Temp. Windchill Dew Point Humidity Pressure Visibility Wind Dir Wind Speed Gust Speed Precip Events Conditions
12:55 AM 49.5 °F - 46.9 °F 91% 30.15 in 10.0 mi WNW 3.5 mph - N/A   Clear
1:55 AM 47.3 °F - 45.1 °F 92% 30.18 in 10.0 mi WNW 3.5 mph - N/A   Scattered Clouds
2:55 AM 45.3 °F - 44.6 °F 97% 30.18 in 10.0 mi Calm Calm - N/A   Clear
3:55 AM 43.9 °F - 43.3 °F 98% 30.20 in 10.0 mi Calm Calm - N/A   Clear
4:55 AM 42.4 °F - 42.1 °F 99% 30.22 in 10.0 mi Calm Calm - N/A   Clear
5:55 AM 42.1 °F - 41.9 °F 99% 30.25 in 10.0 mi Calm Calm - N/A   Clear
6:55 AM 41.5 °F - 41.4 °F 99% 30.26 in 10.0 mi Calm Calm - N/A   Clear
7:55 AM 43.2 °F - 42.8 °F 99% 30.28 in 10.0 mi Calm Calm - N/A   Clear
8:55 AM 47.1 °F - 44.6 °F 91% 30.30 in 10.0 mi Calm Calm - N/A   Clear
9:55 AM 50.2 °F - 44.6 °F 81% 30.32 in 10.0 mi Calm Calm - N/A   Clear
10:55 AM 53.8 °F - 44.6 °F 71% 30.33 in 10.0 mi Calm Calm - N/A   Clear
11:50 AM 57.2 °F - 42.8 °F 59% 30.30 in 10.0 mi Variable 4.6 mph - N/A   Light Drizzle
11:52 AM 57.2 °F - 42.8 °F 59% 30.30 in 10.0 mi East 3.5 mph - N/A   Clear
11:55 AM 57.4 °F - 42.3 °F 57% 30.30 in 10.0 mi NE 3.5 mph - 0.00 in   Clear
12:55 PM 59.7 °F - 37.6 °F 44% 30.29 in 10.0 mi Variable 5.8 mph - N/A   Clear
1:55 PM 60.4 °F - 33.8 °F 37% 30.28 in 10.0 mi ENE 9.2 mph - N/A   Clear
2:55 PM 61.9 °F - 32.5 °F 33% 30.28 in 10.0 mi NNE 5.8 mph - N/A   Clear
3:55 PM 61.0 °F - 29.5 °F 30% 30.29 in 10.0 mi NE 5.8 mph - N/A   Clear
4:55 PM 56.7 °F - 37.6 °F 49% 30.30 in 10.0 mi Calm Calm - N/A   Clear
5:55 PM 50.0 °F - 38.7 °F 65% 30.31 in 10.0 mi Variable 3.5 mph - N/A   Clear
6:55 PM 48.2 °F - 36.1 °F 63% 30.32 in 10.0 mi Variable 3.5 mph - N/A   Clear
7:55 PM 46.4 °F 44.3 °F 36.1 °F 67% 30.33 in 10.0 mi NNE 4.6 mph - N/A   Clear
8:55 PM 44.8 °F 42.4 °F 33.8 °F 65% 30.34 in 10.0 mi ENE 4.6 mph - N/A   Clear
9:55 PM 44.1 °F - 33.6 °F 67% 30.35 in 10.0 mi Calm Calm - N/A   Clear
10:55 PM 42.1 °F - 33.4 °F 71% 30.35 in 10.0 mi Calm Calm - N/A   Clear
11:55 PM 38.8 °F 33.8 °F 34.0 °F 83% 30.35 in 10.0 mi NE 6.9 mph - N/A   Clear